PD1VW-10 Weather Reports


Display with metric or nautical units.
time (UTC)temp
F
wind
direction
speed
MPH
gust
MPH
rain 1hr
in
rain 24hr
in
rain mn
in
humidity
%
barometer
mb
20260901110040 66 298 9.0 10.0 0.00 0.19 0.00 69 1020.8
20260901105037 66 322 6.0 10.0 0.00 0.21 0.00 69 1021.0
20260901104035 66 251 3.0 8.0 0.00 0.21 0.00 72 1020.9
20260901103033 66 289 8.0 10.0 0.00 0.29 0.00 73 1020.7
20260901102030 65 296 7.0 9.0 0.00 0.29 0.00 73 1020.7
20260901101047 65 259 4.0 9.0 0.00 0.29 0.00 74 1020.6
20260901100025 67 256 6.0 9.0 0.00 0.30 0.00 73 1020.7
20260901095143 64 289 5.0 8.0 0.00 0.30 0.00 75 1020.7
20260901094020 65 279 6.0 9.0 0.00 0.31 0.00 71 1020.5
20260901093018 64 262 5.0 10.0 0.00 0.32 0.00 74 1020.6
20260901092015 66 276 7.0 10.0 0.00 0.36 0.00 72 1020.3
20260901091043 65 276 6.0 8.0 0.00 0.42 0.00 73 1020.4
20260901090040 65 273 12.0 15.0 0.00 0.42 0.00 72 1020.2
20260901085038 65 272 9.0 10.0 0.00 0.42 0.00 72 1020.1
20260901084055 65 279 5.0 8.0 0.00 0.42 0.00 72 1019.9
20260901083033 64 259 3.0 7.0 0.00 0.42 0.00 74 1020.1
20260901082030 64 245 5.0 8.0 0.00 0.42 0.00 75 1019.8
20260901081028 64 242 8.0 13.0 0.00 0.42 0.00 76 1019.7
20260901080025 64 263 4.0 7.0 0.00 0.42 0.00 78 1019.8
20260901075043 64 242 4.0 7.0 0.00 0.42 0.00 79 1019.8
20260901074020 64 249 3.0 4.0 0.00 0.42 0.00 79 1019.6
20260901073018 63 234 3.0 6.0 0.00 0.42 0.00 80 1019.5
20260901072016 63 232 1.0 2.0 0.00 0.42 0.00 82 1019.3
20260901071043 63 205 1.0 2.0 0.00 0.42 0.00 83 1019.3
20260901070041 62 178 1.0 1.0 0.00 0.42 0.00 84 1019.2
20260901065038 62 214 2.0 3.0 0.00 0.42 0.00 84 1019.1
20260901064035 61 188 1.0 2.0 0.00 0.42 0.00 85 1019.1
20260901063033 61 203 2.0 2.0 0.00 0.42 0.00 86 1019.1
20260901062030 61 199 2.0 3.0 0.00 0.44 0.00 86 1019.0
20260901061028 60 235 2.0 2.0 0.00 0.44 0.00 87 1018.9
20260901060025 61 205 2.0 2.0 0.00 0.44 0.00 87 1018.7
20260901055042 61 240 2.0 3.0 0.00 0.44 0.00 87 1018.8
20260901054019 60 231 2.0 4.0 0.00 0.44 0.00 88 1018.5
20260901053036 60 172 1.0 2.0 0.00 0.44 0.00 89 1018.5
20260901052044 60 210 1.0 1.0 0.00 0.44 0.00 91 1018.4
20260901051041 59 0.0 0.0 0.00 0.44 0.00 91 1018.3
20260901050038 59 216 2.0 3.0 0.00 0.44 0.00 92 1018.3
20260901045035 59 209 1.0 2.0 0.00 0.44 0.00 92 1018.2
20260901044033 59 177 1.0 2.0 0.00 0.44 0.00 91 1018.1
20260901043030 59 192 2.0 2.0 0.00 0.44 0.00 92 1017.9
20260901042028 59 188 1.0 1.0 0.00 0.44 0.00 91 1017.8
20260901041025 59 177 1.0 2.0 0.00 0.44 0.00 91 1017.9
20260901040022 59 215 1.0 2.0 0.00 0.45 0.00 90 1017.7
20260901035020 59 0.0 0.0 0.00 0.47 0.00 90 1017.8
20260901034018 59 168 1.0 1.0 0.00 0.48 0.00 90 1017.7
20260901033015 61 0.0 0.0 0.00 0.48 0.00 88 1017.6
20260901032043 61 203 1.0 2.0 0.00 0.48 0.00 88 1017.7
20260901031100 61 258 3.0 3.0 0.00 0.48 0.00 87 1017.7
20260901030038 61 245 2.0 4.0 0.00 0.48 0.00 87 1017.6
20260901025035 61 239 2.0 3.0 0.00 0.48 0.00 87 1017.6
20260901024032 61 239 2.0 2.0 0.00 0.48 0.00 88 1017.7
20260901023030 61 239 2.0 2.0 0.00 0.48 0.00 88 1017.6
20260901022027 61 216 1.0 2.0 0.00 0.48 0.00 89 1017.7
20260901021025 61 203 2.0 3.0 0.00 0.48 0.00 89 1017.4
20260901020022 62 216 1.0 1.0 0.00 0.48 0.00 89 1017.4
20260901015020 62 255 2.0 3.0 0.00 0.48 0.00 89 1017.5
20260901014017 62 249 3.0 4.0 0.00 0.48 0.00 89 1017.5
20260901013105 62 250 2.0 4.0 0.00 0.48 0.00 89 1017.4
20260901012042 62 255 2.0 3.0 0.00 0.48 0.00 89 1017.3
20260901011039 62 149 2.0 4.0 0.00 0.48 0.00 89 1017.3
20260901010036 62 168 1.0 2.0 0.00 0.48 0.00 89 1017.1
20260901005033 62 155 1.0 2.0 0.00 0.48 0.00 89 1017.1
20260901004030 62 245 3.0 4.0 0.00 0.48 0.00 89 1017.2
20260901003027 62 242 3.0 4.0 0.00 0.48 0.00 88 1017.0
20260901002024 62 281 3.0 4.0 0.00 0.48 0.00 88 1016.9
20260901001021 63 252 3.0 4.0 0.00 0.48 0.00 88 1016.9
20260901000019 63 265 2.0 3.0 0.00 0.48 0.00 89 1016.9
20260831235016 63 223 3.0 3.0 0.00 0.48 0.00 90 1017.0
20260831234043 62 247 3.0 3.0 0.00 0.48 0.00 91 1016.8
20260831233040 62 231 3.0 3.0 0.00 0.48 0.00 91 1016.8
20260831232038 62 214 2.0 3.0 0.00 0.48 0.00 91 1016.7
20260831231035 62 236 2.0 3.0 0.00 0.48 0.00 91 1016.6
20260831230052 62 224 3.0 4.0 0.00 0.48 0.00 92 1016.6
20260831225030 61 204 2.0 2.0 0.00 0.48 0.00 92 1016.5
20260831224027 61 198 1.0 2.0 0.00 0.48 0.00 92 1016.5
20260831223025 61 240 3.0 4.0 0.00 0.48 0.00 92 1016.7
20260831222022 61 195 3.0 3.0 0.00 0.49 0.00 92 1016.7
20260831221019 61 210 3.0 4.0 0.00 0.49 0.00 92 1016.5
20260831220017 60 194 1.0 2.0 0.00 0.49 0.49 92 1016.6
20260831215045 60 177 1.0 2.0 0.00 0.51 0.49 92 1016.5
20260831214042 60 175 2.0 2.0 0.00 0.62 0.49 92 1016.7
20260831213040 60 191 2.0 2.0 0.00 0.64 0.49 91 1016.5
20260831212037 61 193 2.0 2.0 0.00 0.64 0.49 90 1016.5
20260831211055 61 173 1.0 2.0 0.00 0.64 0.49 90 1016.3
20260831210052 62 177 1.0 2.0 0.00 0.64 0.49 89 1016.2
20260831205029 62 216 3.0 3.0 0.00 0.64 0.49 88 1016.0
20260831204027 62 222 3.0 4.0 0.00 0.64 0.49 88 1016.0
20260831203024 63 238 3.0 4.0 0.00 0.64 0.49 88 1015.7
20260831202022 63 187 1.0 2.0 0.00 0.64 0.49 88 1015.8
20260831201019 63 230 3.0 3.0 0.00 0.64 0.49 88 1015.7
20260831200017 63 196 2.0 3.0 0.00 0.64 0.49 88 1015.6
20260831195044 63 189 1.0 1.0 0.00 0.64 0.49 88 1015.6
20260831194042 63 273 3.0 4.0 0.00 0.64 0.49 88 1015.5
20260831193039 63 252 4.0 6.0 0.00 0.64 0.49 87 1015.5
20260831192036 63 236 2.0 3.0 0.00 0.64 0.49 86 1015.3
20260831191054 64 260 5.0 8.0 0.00 0.64 0.49 85 1015.3
20260831190031 64 61 4.0 7.0 0.00 0.64 0.49 85 1014.9
20260831185049 64 209 4.0 6.0 0.00 0.64 0.49 85 1014.7
20260831184025 64 273 5.0 8.0 0.00 0.64 0.49 85 1014.5
20260831183022 64 203 7.0 11.0 0.00 0.64 0.49 85 1014.3
20260831182020 64 0.0 0.0 0.00 0.64 0.49 84 1014.2
20260831181016 64 272 5.0 7.0 0.00 0.64 0.49 84 1013.9
20260831175039 64 254 6.0 8.0 0.00 0.64 0.49 83 1013.8
20260831174037 64 274 4.0 6.0 0.00 0.64 0.49 83 1013.6
20260831173034 64 314 8.0 10.0 0.01 0.64 0.49 84 1013.5
20260831172031 64 281 6.0 7.0 0.01 0.64 0.49 86 1013.5
20260831171029 64 314 6.0 8.0 0.02 0.64 0.49 87 1013.6
20260831170027 63 259 8.0 11.0 0.09 0.64 0.49 88 1013.1
20260831165044 63 267 7.0 14.0 0.09 0.64 0.49 91 1012.9
20260831164022 62 321 5.0 8.0 0.09 0.64 0.49 93 1013.0
20260831163039 62 250 4.0 8.0 0.08 0.63 0.48 92 1012.8
20260831162037 62 218 6.0 8.0 0.09 0.63 0.48 92 1012.8
20260831161044 63 256 10.0 15.0 0.08 0.62 0.47 88 1012.7
20260831160042 64 277 8.0 10.0 0.01 0.55 0.40 84 1012.2
20260831155059 64 245 7.0 10.0 0.01 0.55 0.40 85 1012.2
20260831154056 64 254 6.0 10.0 0.02 0.55 0.40 85 1012.2
20260831153034 64 239 5.0 7.0 0.03 0.55 0.40 87 1012.1
20260831152031 64 232 7.0 11.0 0.02 0.54 0.39 86 1011.9
20260831151028 64 276 6.0 13.0 0.02 0.54 0.39 86 1011.8
20260831150026 63 270 8.0 11.0 0.02 0.54 0.39 88 1011.7
20260831145024 63 273 5.0 10.0 0.03 0.54 0.39 89 1011.7
20260831144041 63 276 9.0 16.0 0.02 0.53 0.38 86 1011.7
20260831143018 64 285 6.0 9.0 0.02 0.52 0.37 86 1011.6
20260831142036 63 222 6.0 9.0 0.07 0.52 0.37 87 1011.2
20260831141043 62 279 7.0 11.0 0.07 0.52 0.37 91 1011.0
20260831140040 62 222 4.0 6.0 0.07 0.52 0.37 92 1011.0
20260831135037 61 289 3.0 9.0 0.06 0.51 0.36 92 1010.9
20260831134035 61 271 7.0 11.0 0.06 0.51 0.36 91 1010.9
20260831133032 63 270 9.0 13.0 0.05 0.50 0.35 86 1010.6
20260831132029 64 274 8.0 14.0 0.00 0.45 0.30 80 1010.4
20260831131027 64 255 2.0 6.0 0.00 0.45 0.30 79 1010.6
20260831130024 64 276 6.0 10.0 0.00 0.45 0.30 77 1010.6
20260831125021 65 271 6.0 11.0 0.00 0.45 0.30 77 1010.2
20260831124018 65 248 9.0 13.0 0.00 0.45 0.30 76 1010.1
20260831123015 66 237 7.0 11.0 0.00 0.45 0.30 77 1009.9
20260831122042 65 237 11.0 15.0 0.00 0.45 0.30 75 1009.7
20260831121039 66 239 11.0 21.0 0.00 0.45 0.30 75 1009.6
20260831120036 66 240 7.0 13.0 0.00 0.45 0.30 77 1009.4
20260831115034 65 230 10.0 19.0 0.02 0.45 0.30 77 1009.3
20260831114051 65 231 10.0 15.0 0.02 0.45 0.30 78 1009.1
20260831113028 65 276 7.0 14.0 0.10 0.45 0.30 81 1009.0
20260831112025 63 278 9.0 11.0 0.10 0.45 0.30 86 1009.0
20260831111022 62 182 6.0 9.0 0.10 0.45 0.30 93 1008.7